Weather History for Jacksonville, NC

Change the Weather History Date:

Tuesday, February 5, 2013

  Actual Average Record
Temperature  
Mean Temperature 50 °F -  
Max Temperature 64 °F 54 °F 75 °F (2008)
Min Temperature 37 °F 33 °F 21 °F (2009)
Degree Days  
Heating Degree Days 14    
Moisture  
Dew Point 34 °F    
Average Humidity 62    
Maximum Humidity 93    
Minimum Humidity 30    
Precipitation  
Precipitation 0.00 in - - ()
Sea Level Pressure  
Sea Level Pressure 29.98 in    
Wind  
Wind Speed 5 mph (SSW)    
Max Wind Speed 15 mph    
Max Gust Speed 23 mph    
Visibility 10 miles    
Events      
Averages and records for this station are not official NWS values.
T = Trace of Precipitation, MM = Missing Value Source: NWS Daily Summary

Daily Weather History Graph

Daily Weather History Graph

Search for Another Location

Airport:

Trip Planner

Search our weather history database for the weather conditions in past years. The results will help you decide how hot, cold, wet, or windy it might be!

Date:

Astronomy

Feb. 05, 2013 Rise Set
Actual Time 7:05 AM EST 5:43 PM EST
Civil Twilight 6:39 AM EST 6:10 PM EST
Nautical Twilight 6:09 AM EST 6:40 PM EST
Astronomical Twilight 5:39 AM EST 7:09 PM EST
Moon 2:41 AM EST (2/5) 1:03 PM EST (2/5)
Length of Visible Light 11h 30m
Length of Day
10h 38m
Waning Crescent, 27% of the Moon is Illuminated
Feb 5
Waning Crescent
Feb 10
New
Feb 17
First Quarter
Feb 25
Full
Mar 4
Last Quarter

Hourly Weather History & Observations

Time (EST) Temp. Windchill Dew Point Humidity Pressure Visibility Wind Dir Wind Speed Gust Speed Precip Events Conditions
12:15 AM 37.4 °F - 32.0 °F 81% 30.07 in 10.0 mi Calm Calm - N/A   Clear
12:35 AM 37.4 °F - 33.8 °F 87% 30.06 in 10.0 mi Calm Calm - N/A   Clear
12:55 AM 37.4 °F - 33.8 °F 87% 30.05 in 10.0 mi Calm Calm - N/A   Clear
1:15 AM 37.4 °F - 33.8 °F 87% 30.05 in 10.0 mi Calm Calm - N/A   Clear
1:35 AM 37.4 °F - 33.8 °F 87% 30.04 in 10.0 mi Calm Calm - N/A   Clear
1:55 AM 37.4 °F 34.9 °F 33.8 °F 87% 30.04 in 10.0 mi SSW 3.5 mph - N/A   Clear
2:15 AM 37.4 °F 34.9 °F 33.8 °F 87% 30.03 in 10.0 mi SSW 3.5 mph - N/A   Partly Cloudy
2:35 AM 37.4 °F 34.9 °F 33.8 °F 87% 30.02 in 10.0 mi SSW 3.5 mph - N/A   Partly Cloudy
2:55 AM 39.2 °F - 33.8 °F 81% 30.01 in 10.0 mi Calm Calm - N/A   Partly Cloudy
3:15 AM 39.2 °F - 33.8 °F 81% 30.01 in 10.0 mi Calm Calm - N/A   Clear
3:35 AM 37.4 °F - 33.8 °F 87% 30.00 in 10.0 mi Calm Calm - N/A   Clear
3:55 AM 39.2 °F - 33.8 °F 81% 29.99 in 10.0 mi Calm Calm - N/A   Clear
4:15 AM 37.4 °F - 33.8 °F 87% 30.00 in 10.0 mi Calm Calm - N/A   Clear
4:35 AM 37.4 °F - 33.8 °F 87% 30.00 in 10.0 mi Calm Calm - N/A   Clear
4:55 AM 37.4 °F 34.9 °F 33.8 °F 87% 29.99 in 10.0 mi SSW 3.5 mph - N/A   Clear
5:15 AM 37.4 °F 34.9 °F 33.8 °F 87% 29.99 in 10.0 mi SSW 3.5 mph - N/A   Clear
5:35 AM 37.4 °F - 35.6 °F 93% 29.99 in 10.0 mi Calm Calm - N/A   Clear
5:55 AM 37.4 °F 33.8 °F 33.8 °F 87% 30.00 in 10.0 mi SSW 4.6 mph - N/A   Clear
6:15 AM 37.4 °F 33.8 °F 33.8 °F 87% 30.00 in 10.0 mi SSW 4.6 mph - N/A   Clear
6:35 AM 37.4 °F 33.8 °F 33.8 °F 87% 30.01 in 10.0 mi SW 4.6 mph - N/A   Clear
6:55 AM 37.4 °F 34.9 °F 33.8 °F 87% 30.01 in 10.0 mi SSW 3.5 mph - N/A   Clear
7:15 AM 37.4 °F 33.8 °F 33.8 °F 87% 30.02 in 10.0 mi SSW 4.6 mph - N/A   Clear
7:35 AM 37.4 °F 32.1 °F 33.8 °F 87% 30.02 in 10.0 mi South 6.9 mph - N/A   Clear
7:55 AM 39.2 °F 34.2 °F 35.6 °F 87% 30.02 in 10.0 mi South 6.9 mph - N/A   Clear
8:15 AM 42.8 °F 38.6 °F 37.4 °F 81% 30.04 in 10.0 mi SW 6.9 mph - N/A   Clear
8:35 AM 44.6 °F 40.7 °F 35.6 °F 71% 30.05 in 10.0 mi SW 6.9 mph - N/A   Clear
8:55 AM 46.4 °F 43.5 °F 35.6 °F 66% 30.05 in 10.0 mi SW 5.8 mph - N/A   Clear
9:15 AM 48.2 °F - 35.6 °F 62% 30.04 in 10.0 mi SSW 8.1 mph - N/A   Clear
9:35 AM 50.0 °F - 35.6 °F 58% 30.04 in 10.0 mi SW 12.7 mph 16.1 mph N/A   Clear
9:55 AM 51.8 °F - 35.6 °F 54% 30.04 in 10.0 mi SW 9.2 mph - N/A   Clear
10:15 AM 53.6 °F - 33.8 °F 47% 30.04 in 10.0 mi SSW 12.7 mph - N/A   Clear
10:35 AM 55.4 °F - 33.8 °F 44% 30.04 in 10.0 mi SSW 11.5 mph - N/A   Clear
10:55 AM 57.2 °F - 33.8 °F 41% 30.03 in 10.0 mi SW 10.4 mph 17.3 mph N/A   Clear
11:15 AM 57.2 °F - 30.2 °F 36% 30.02 in 10.0 mi WSW 11.5 mph 21.9 mph N/A   Clear
11:35 AM 59.0 °F - 33.8 °F 39% 30.01 in 10.0 mi SW 11.5 mph 18.4 mph N/A   Clear
11:55 AM 60.8 °F - 33.8 °F 36% 30.00 in 10.0 mi SSW 15.0 mph 20.7 mph N/A   Clear
12:15 PM 60.8 °F - 33.8 °F 36% 29.99 in 10.0 mi SW 13.8 mph 18.4 mph N/A   Clear
12:35 PM 60.8 °F - 33.8 °F 36% 29.98 in 10.0 mi SSW 12.7 mph 23.0 mph N/A   Clear
12:55 PM 60.8 °F - 33.8 °F 36% 29.96 in 10.0 mi WSW 11.5 mph 20.7 mph N/A   Scattered Clouds
1:15 PM 62.6 °F - 33.8 °F 34% 29.94 in 10.0 mi SSW 15.0 mph 21.9 mph N/A   Scattered Clouds
1:35 PM 64.4 °F - 33.8 °F 32% 29.94 in 10.0 mi SW 15.0 mph - N/A   Partly Cloudy
1:55 PM 64.4 °F - 33.8 °F 32% 29.93 in 10.0 mi South 12.7 mph 18.4 mph N/A   Partly Cloudy
2:15 PM 64.4 °F - 33.8 °F 32% 29.93 in 10.0 mi SSW 13.8 mph - N/A   Clear
2:35 PM 64.4 °F - 32.0 °F 30% 29.92 in 10.0 mi SSW 11.5 mph 17.3 mph N/A   Partly Cloudy
2:55 PM 62.6 °F - 32.0 °F 32% 29.92 in 10.0 mi SW 9.2 mph - N/A   Scattered Clouds
3:15 PM 64.4 °F - 33.8 °F 32% 29.91 in 10.0 mi SSW 15.0 mph 19.6 mph N/A   Mostly Cloudy
3:35 PM 64.4 °F - 32.0 °F 30% 29.91 in 10.0 mi SW 13.8 mph - N/A   Mostly Cloudy
3:55 PM 64.4 °F - 33.8 °F 32% 29.91 in 10.0 mi SW 10.4 mph 18.4 mph N/A   Partly Cloudy
4:15 PM 64.4 °F - 32.0 °F 30% 29.90 in 10.0 mi SW 11.5 mph 17.3 mph N/A   Partly Cloudy
4:35 PM 64.4 °F - 33.8 °F 32% 29.90 in 10.0 mi SW 10.4 mph 16.1 mph N/A   Clear
4:55 PM 62.6 °F - 33.8 °F 34% 29.90 in 10.0 mi SSW 9.2 mph - N/A   Clear
5:15 PM 62.6 °F - 33.8 °F 34% 29.90 in 10.0 mi SW 15.0 mph 20.7 mph N/A   Clear
5:35 PM 60.8 °F - 32.0 °F 34% 29.91 in 10.0 mi SW 9.2 mph 16.1 mph N/A   Clear
5:55 PM 59.0 °F - 32.0 °F 36% 29.91 in 10.0 mi SSW 6.9 mph - N/A   Clear
6:15 PM 55.4 °F - 32.0 °F 41% 29.92 in 10.0 mi SW 3.5 mph - N/A   Clear
6:35 PM 51.8 °F - 33.8 °F 50% 29.93 in 10.0 mi SSW 4.6 mph - N/A   Partly Cloudy
6:55 PM 51.8 °F - 33.8 °F 50% 29.94 in 10.0 mi SSW 4.6 mph - N/A   Clear
7:15 PM 50.0 °F - 33.8 °F 54% 29.94 in 10.0 mi Calm Calm - N/A   Clear
7:35 PM 48.2 °F - 33.8 °F 58% 29.95 in 10.0 mi Calm Calm - N/A   Clear
7:55 PM 46.4 °F 42.4 °F 33.8 °F 62% 29.95 in 10.0 mi South 8.1 mph - N/A   Clear
8:15 PM 48.2 °F - 35.6 °F 62% 29.96 in 10.0 mi South 5.8 mph - N/A   Clear
8:35 PM 48.2 °F - 35.6 °F 62% 29.96 in 10.0 mi South 4.6 mph - N/A   Clear
8:55 PM 48.2 °F - 35.6 °F 62% 29.96 in 10.0 mi South 4.6 mph - N/A   Clear
9:15 PM 48.2 °F - 35.6 °F 62% 29.97 in 10.0 mi SSW 5.8 mph - N/A   Clear
9:35 PM 46.4 °F 44.3 °F 37.4 °F 71% 29.97 in 10.0 mi SSW 4.6 mph - N/A   Clear
9:55 PM 46.4 °F - 35.6 °F 66% 29.98 in 10.0 mi Calm Calm - N/A   Clear
10:15 PM 46.4 °F 43.5 °F 37.4 °F 71% 29.98 in 10.0 mi SSW 5.8 mph - N/A   Clear
10:35 PM 44.6 °F 40.7 °F 39.2 °F 81% 29.98 in 10.0 mi SSW 6.9 mph - N/A   Clear
10:55 PM 46.4 °F 42.9 °F 39.2 °F 76% 29.99 in 10.0 mi SSW 6.9 mph - N/A   Clear
11:15 PM 46.4 °F 43.5 °F 41.0 °F 81% 29.99 in 10.0 mi SSW 5.8 mph - N/A   Clear
11:35 PM 46.4 °F 42.9 °F 41.0 °F 81% 29.99 in 10.0 mi SSW 6.9 mph - N/A   Clear
11:55 PM 46.4 °F 42.9 °F 41.0 °F 81% 29.99 in 10.0 mi SSW 6.9 mph - N/A   Clear